Dati Storici

Data ora Umidita' aria (%) Temperatura aria (°C) Rad globale (W/m²) Gonioanemometro (°) Tacoanemometro (m/s) Pioggia (mm)
14-10-2012 10:40 69.5 % 15.162 227.231 40.182 0.894 0
14-10-2012 10:30 69.4 % 15.396 409.546 96.613 1.482 0
14-10-2012 10:20 68.2 % 14.291 483.505 2.235 2.942 0
14-10-2012 10:10 69.9 % 14.459 331.036 30.059 0.654 0
14-10-2012 10:00 69.3 % 14.558 227.034 83.391 0.964 0
14-10-2012 09:50 70.4 % 13.999 393.7 3.92 0.724 0
14-10-2012 09:40 70.6 % 14.699 238.885 61.644 0.474 0
14-10-2012 09:30 72.1 % 14.316 237.116 8.079 0.277 0
14-10-2012 09:20 75.5 % 13.958 193.442 72.746 0.015 0
14-10-2012 09:10 76.4 % 13.179 260.568 84.619 0.281 0
14-10-2012 09:00 76.7 % 12.887 164.386 37.529 0.653 0
14-10-2012 08:50 76.9 % 12.391 181.738 1.073 0.688 0
14-10-2012 08:40 76.7 % 12.243 216.619 44.104 0.612 0
14-10-2012 08:30 79.8 % 12.414 202.519 124.871 0.442 0
14-10-2012 08:20 81.3 % 11.603 135.187 90.73 0.516 0
14-10-2012 08:10 82.2 % 11.293 64.37 20.577 0.381 0
14-10-2012 08:00 83.6 % 11.208 40.36 358.246 0.684 0
14-10-2012 07:50 84.9 % 10.78 49.788 290.527 0.967 0
14-10-2012 07:40 85.5 % 10.703 22.355 64.652 0.694 0
14-10-2012 07:30 86 % 10.411 11.246 356.499 0.341 0

I dati sono presentati in modo automatico a scopo informativo. In seguito a verifica i dati possono subire modifiche o essere invalidati e non riportati negli archivi definitivi.